Simultaneous Nadir Overpasses (SNOs) Predictions

Prediction of SNOs between FY3D and AQUA Satellite Orbit:

Table of predicted SNOs for the next 14.0 days since TLE Epoch: 4/18/2020
Index Date (FY3D) Time (FY3D) Lat,Lon (FY3D) SZA (FY3D ) Date (AQUA) Time (AQUA) Lat,Lon (AQUA) SZA (AQUA ) Distance(km) Time Diff (sec)
1 04/20/2020 11:51:52 -67.09, 45.73 84.97 04/20/2020 11:52:16 -67.09, 45.71 84.98 1.11 24
2 04/20/2020 12:41:39 70.10,-142.93 91.90 04/20/2020 12:40:47 70.11,-142.91 91.95 0.97 52
3 04/23/2020 04:08:27 -66.49, 160.96 85.26 04/23/2020 04:08:55 -66.49, 160.96 85.29 0.15 28
4 04/23/2020 04:58:10 69.73, -27.58 91.39 04/23/2020 04:57:22 69.74, -27.54 91.42 1.96 48
5 04/25/2020 20:25:01 -65.95, -83.72 85.58 04/25/2020 20:25:33 -65.95, -83.70 85.62 1.03 32
6 04/25/2020 21:14:23 70.26, 89.13 89.95 04/25/2020 21:13:40 70.25, 89.06 90.02 2.55 43
7 04/28/2020 12:41:33 -65.45, 31.67 85.92 04/28/2020 12:42:09 -65.46, 31.70 85.97 1.52 36
8 04/28/2020 13:30:52 70.00,-155.38 89.39 04/28/2020 13:30:13 69.99,-155.43 89.45 2.28 39
9 05/01/2020 04:58:04 -65.06, 147.19 86.33 05/01/2020 04:58:44 -65.07, 147.22 86.39 1.65 40




NCC Satellite Simultaneous Nadir Overpasses (SNOs) Prediction Service
